Home   Weather   Jerome   Past weeks
Flag for USA

Past Weather in Jerome, Idaho, USA — Yesterday and Last 2 Weeks

Now
47 °F

Overcast.


Feels Like: 43 °F
Forecast: 58 / 38 °F
Wind: 7 mph from Southwest

Location: Jerome County Airport

Current Time: Oct 22, 2019 at 1:12:21 am

Latest Report: Oct 21, 2019 at 11:53 pm


Visibility: 10 mi

Pressure: 30.32 "Hg (26.38 "Hg at 1147m altitude)

Humidity: 66%

Dew Point: 36 °F

Location of JeromeLocation

Past Weather in Jerome — Graph

°F

Jerome Temperature Yesterday

Maximum temperature yesterday: 55 °F (at 2:53 pm)
Minimum temperature yesterday: 37 °F (at 5:53 am)
Average temperature yesterday: 45 °F

High & Low Weather Summary for the Past Weeks

 TemperatureHumidityPressure
High79 °F (Oct 16, 3:53 pm)97% (Oct 19, 3:02 pm)30.50 "Hg (Oct 19, 3:02 pm)
Low24 °F (Oct 11, 3:53 am)9% (Oct 13, 4:53 pm)29.59 "Hg (Oct 17, 5:53 am)
Average46 °F49%30.04 "Hg
* Reported Oct 6 10:53 pm — Oct 21 10:53 pm, Jerome. Weather by CustomWeather, © 2019

Note: Actual official high and low records may vary slightly from our data, if they occured in-between our weather recording intervals... More about our weather records

Advertising

Jerome Weather History for the Previous 24 Hours

Scroll right to see more
 ConditionsComfort  
Time TempWeatherWind HumidityBarometerVisibility
10:53 pm
Mon, Oct 21
47 °FOvercast.8 mph64%30.33 "Hg10 mi
9:53 pm47 °FPassing clouds.9 mph61%30.32 "Hg10 mi
8:53 pm48 °FClear.9 mph56%30.33 "Hg10 mi
7:53 pm49 °FPassing clouds.16 mph52%30.32 "Hg10 mi
6:53 pm50 °FOvercast.21 mph50%30.29 "Hg10 mi
5:53 pm51 °FSunny.15 mph50%30.29 "Hg10 mi
4:53 pm53 °FSunny.22 mph47%30.27 "Hg10 mi
3:53 pm54 °FPassing clouds.26 mph47%30.25 "Hg10 mi
2:53 pm55 °FMostly cloudy.28 mph45%30.24 "Hg10 mi
1:53 pm53 °FOvercast.21 mph51%30.25 "Hg10 mi
12:53 pm51 °FOvercast.21 mph59%30.25 "Hg10 mi
11:53 am48 °FOvercast.20 mph68%30.27 "Hg10 mi
10:53 am46 °FCool.18 mph71%30.25 "Hg10 mi
9:53 am43 °FSunny.15 mph79%30.24 "HgN/A
8:53 am40 °FClear.13 mph83%30.21 "HgN/A
7:53 am38 °FClear.7 mph86%30.18 "HgN/A
6:53 am38 °FChilly.13 mph86%30.16 "HgN/A
6:16 am37 °FPassing clouds.7 mph89%30.13 "HgN/A
5:53 am37 °FPassing clouds.7 mph89%30.14 "HgN/A
4:53 am38 °FClear.8 mph83%30.11 "HgN/A
3:53 am39 °FPassing clouds.6 mph76%30.10 "HgN/A
2:53 am38 °FPassing clouds.7 mph79%30.10 "HgN/A
1:53 am41 °FPassing clouds.3 mph67%30.08 "HgN/A
Weather by CustomWeather, © 2019

See weather overview